BEIDOU 17 (C31)

Last updated on Aug. 12, 2020, 5:32 a.m. UTC

1 40549U 15019A   20224.23306735 -.00000190  00000-0  00000-0 0  9998
2 40549  52.9754 320.5740 0040267 189.2271 351.7051  1.00275556 19661
UTC
Height (km)
Latitude
Longitude
Inclination
Orbital Period
UTC large
Height (km)
Speed (km/s)
/
Latitude / Longitude
Inclination (degrees)
Orbital Period (minutes)
Azimuth
Elevation
Range (km)
Doppler Factor
iOS Compass Heading
iOS Angle

Next 30 passes for location: Hong Kong

Rise time Rise Azimuth (degrees) Set time Set Azimuth (degrees) Duration Max altitude (degrees)

No matching passes for this satellites